Minot AFB, ND

6:56 AM CST on February 25, 2017 (GMT -0600)
Minot Air Force Base

Weather History for KMIB - January, 2014

Change the Weather History Date:

Monday, January 13, 2014

  Actual Average Record
Temperature  
Mean Temperature 18 °F -  
Max Temperature 28 °F 15 °F 35 °F (2004)
Min Temperature 7 °F 0 °F -27 °F (2017)
Degree Days  
Heating Degree Days 48    
Moisture  
Dew Point 16 °F    
Average Humidity 86    
Maximum Humidity 93    
Minimum Humidity 79    
Precipitation  
Precipitation 0.00 in - - ()
Snow  
Snow 0.00 in - - ()
Snow Depth 4.00 in    
Sea Level Pressure  
Sea Level Pressure 29.61 in    
Wind  
Wind Speed 15 mph (NW)    
Max Wind Speed 43 mph    
Max Gust Speed 50 mph    
Visibility 9 miles    
Events Snow    
Averages and records for this station are not official NWS values.
T = Trace of Precipitation, MM = Missing Value Source: NWS Daily Summary

Daily Weather History Graph

Daily Weather History Graph

Search for Another Location

Airport or City:

Trip Planner

Search our weather history database for the weather conditions in past years. The results will help you decide how hot, cold, wet, or windy it might be!

Date:

Astronomy

Jan. 13, 2014 Rise Set
Actual Time 8:33 AM CST 5:15 PM CST
Civil Twilight 7:57 AM CST 5:51 PM CST
Nautical Twilight 7:18 AM CST 6:30 PM CST
Astronomical Twilight 6:40 AM CST 7:07 PM CST
Moon 3:33 PM CST (1/13) 6:22 AM CST (1/13)
Length of Visible Light 9h 53m
Length of Day
8h 42m
Waxing Gibbous, 95% of the Moon is Illuminated
Jan 13
Waxing Gibbous
Jan 15
Full
Jan 23
Last Quarter
Jan 30
New
Feb 6
First Quarter

Hourly Weather History & Observations

Time (CST) Temp. Windchill Dew Point Humidity Pressure Visibility Wind Dir Wind Speed Gust Speed Precip Events Conditions
12:58 AM 14.9 °F 2.3 °F 10.4 °F 82% 29.73 in 10.0 mi WNW 10.4 mph - N/A   Mostly Cloudy
1:13 AM 14.0 °F 2.9 °F 10.4 °F 86% 29.64 in 10.0 mi NNW 8.1 mph - N/A   Overcast
1:38 AM 14.0 °F -0.8 °F 8.6 °F 79% 29.63 in 10.0 mi NW 13.8 mph - N/A   Scattered Clouds
1:58 AM 13.5 °F -3.7 °F 8.8 °F 82% 29.71 in 10.0 mi NW 18.4 mph - N/A   Clear
2:58 AM 10.9 °F -3.4 °F 6.6 °F 83% 29.73 in 10.0 mi WNW 11.5 mph - N/A   Clear
3:58 AM 7.3 °F 0.5 °F 3.6 °F 85% 29.76 in 10.0 mi SW 3.5 mph - N/A   Clear
4:58 AM 8.8 °F -6.1 °F 3.9 °F 81% 29.73 in 10.0 mi WNW 11.5 mph - N/A   Clear
5:58 AM 9.0 °F -2.2 °F 5.4 °F 85% 29.70 in 10.0 mi Variable 6.9 mph - N/A   Clear
6:58 AM 13.6 °F -0.7 °F 9.1 °F 82% 29.66 in 10.0 mi WNW 12.7 mph - N/A   Clear
7:58 AM 11.3 °F -1.3 °F 7.3 °F 84% 29.64 in 10.0 mi ESE 9.2 mph - N/A   Clear
8:58 AM 11.1 °F 3.1 °F 7.9 °F 87% 29.66 in 10.0 mi SE 4.6 mph - N/A   Overcast
9:58 AM 12.6 °F -2.7 °F 8.6 °F 84% 29.66 in 10.0 mi SE 13.8 mph - N/A   Mostly Cloudy
10:48 AM 14.0 °F -1.4 °F 10.4 °F 86% 29.54 in 10.0 mi SE 15.0 mph - N/A   Mostly Cloudy
10:53 AM 14.0 °F -1.4 °F 8.6 °F 79% 29.54 in 10.0 mi SE 15.0 mph - N/A   Mostly Cloudy
10:58 AM 14.5 °F 0.5 °F 9.5 °F 80% 29.65 in 10.0 mi SE 12.7 mph - N/A   Mostly Cloudy
11:58 AM 17.1 °F 3.6 °F 12.7 °F 83% 29.60 in 10.0 mi SE 12.7 mph - N/A   Overcast
12:58 PM 19.9 °F 7.9 °F 15.3 °F 82% 29.54 in 10.0 mi SE 11.5 mph - N/A   Clear
1:58 PM 21.4 °F 11.9 °F 17.6 °F 85% 29.52 in 10.0 mi SSE 8.1 mph - N/A   Clear
2:58 PM 23.2 °F 12.6 °F 19.8 °F 87% 29.50 in 10.0 mi ESE 10.4 mph - N/A   Clear
3:58 PM 23.7 °F 15.6 °F 20.8 °F 89% 29.54 in 10.0 mi SE 6.9 mph - N/A   Mostly Cloudy
4:58 PM 23.5 °F 17.6 °F 20.7 °F 89% 29.54 in 10.0 mi ENE 4.6 mph - N/A   Clear
5:58 PM 22.6 °F 18.0 °F 20.1 °F 90% 29.57 in 10.0 mi North 3.5 mph - 0.00 in   Scattered Clouds
6:28 PM 23.0 °F - 21.2 °F 93% 29.47 in 9.0 mi NW 2.3 mph - N/A   Mostly Cloudy
6:33 PM 23.0 °F 17.0 °F 21.2 °F 93% 29.48 in 5.0 mi WNW 4.6 mph - N/A Snow Light Snow
6:38 PM 23.0 °F 17.0 °F 21.2 °F 93% 29.48 in 4.0 mi WNW 4.6 mph - N/A Snow Light Snow
6:48 PM 23.0 °F 15.8 °F 21.2 °F 93% 29.47 in 8.0 mi West 5.8 mph - N/A Snow Light Snow
6:53 PM 23.0 °F 14.7 °F 21.2 °F 93% 29.47 in 10.0 mi West 6.9 mph - N/A   Overcast
6:54 PM 23.0 °F 14.7 °F 21.2 °F 93% 29.47 in 10.0 mi West 6.9 mph - N/A   Overcast
7:23 PM 26.6 °F 11.7 °F 24.8 °F 93% 29.51 in 10.0 mi NW 24.2 mph - N/A   Overcast
7:28 PM 26.6 °F 10.8 °F 24.8 °F 93% 29.51 in 7.0 mi NW 27.6 mph - N/A   Light Freezing Rain
7:33 PM 28.4 °F 13.5 °F 24.8 °F 86% 29.51 in 6.0 mi NW 26.5 mph - N/A   Light Freezing Rain
7:38 PM 28.4 °F 13.0 °F 24.8 °F 86% 29.51 in 7.0 mi NW 28.8 mph - N/A   Light Freezing Rain
7:48 PM 26.6 °F 10.0 °F 23.0 °F 86% 29.53 in 9.0 mi NW 31.1 mph 35.7 mph N/A   Light Freezing Rain
7:58 PM 27.3 °F 11.5 °F 23.7 °F 86% 29.65 in 10.0 mi NW 28.8 mph 36.8 mph 0.00 in   Mostly Cloudy
8:08 PM 26.6 °F 10.6 °F 23.0 °F 86% 29.56 in 10.0 mi NW 28.8 mph 35.7 mph N/A   Mostly Cloudy
8:23 PM 26.6 °F 9.8 °F 23.0 °F 86% 29.56 in 10.0 mi NW 32.2 mph 41.4 mph N/A   Overcast
8:53 PM 26.6 °F 8.9 °F 23.0 °F 86% 29.58 in 9.0 mi NW 36.8 mph 44.9 mph N/A   Light Freezing Rain
8:58 PM 26.1 °F 7.9 °F 22.6 °F 87% 29.68 in 9.0 mi NW 38.0 mph 46.0 mph 0.00 in   Light Freezing Rain
9:03 PM 26.6 °F 8.9 °F 23.0 °F 86% 29.59 in 10.0 mi NW 36.8 mph 46.0 mph N/A   Light Freezing Rain
9:58 PM 24.8 °F 7.3 °F 21.2 °F 86% 29.74 in 10.0 mi NNW 32.2 mph 35.7 mph 0.00 in   Overcast
10:58 PM 23.4 °F 4.0 °F 18.7 °F 82% 29.81 in 10.0 mi NW 39.1 mph 43.7 mph 0.00 in   Overcast
11:18 PM 21.2 °F 1.2 °F 17.6 °F 86% 29.73 in 10.0 mi NW 38.0 mph 47.2 mph N/A   Overcast
11:38 PM 21.2 °F 0.3 °F 17.6 °F 86% 29.74 in 10.0 mi NW 42.6 mph 47.2 mph N/A   Overcast
11:48 PM 21.2 °F 1.2 °F 15.8 °F 80% 29.76 in 7.0 mi NW 38.0 mph 49.5 mph N/A Snow Light Snow
11:58 PM 21.6 °F 2.9 °F 16.3 °F 80% 29.87 in 9.0 mi NW 32.2 mph 44.9 mph 0.00 in Snow Light Snow